Weather History for KHTS - March, 2013

Change the Weather History Date:

Sunday, March 31, 2013

  Actual Average Record
Temperature  
Mean Temperature 51 °F 51 °F  
Max Temperature 55 °F 63 °F 85 °F (1986)
Min Temperature 46 °F 40 °F 18 °F (1923)
Degree Days  
Heating Degree Days 14 14  
Month to date heating degree days 761 597  
Since 1 July heating degree days 4176 4097  
Cooling Degree Days 0 0  
Month to date cooling degree days 0 5  
Year to date cooling degree days 0 5  
Moisture  
Dew Point 45 °F    
Average Humidity 76    
Maximum Humidity 96    
Minimum Humidity 56    
Precipitation  
Precipitation 0.15 in 0.12 in 1.80 in (1908)
Month to date precipitation 3.89 3.90  
Year to date precipitation 9.57 9.94  
Snow  
Snow 0.00 in - - ()
Month to date snowfall T  
Since 1 September snowfall 11.9  
Snow Depth 0.00 in    
Sea Level Pressure  
Sea Level Pressure 29.83 in    
Wind  
Wind Speed 5 mph (SW)    
Max Wind Speed 14 mph    
Max Gust Speed 21 mph    
Visibility 7 miles    
Events Rain    
T = Trace of Precipitation, MM = Missing Value Source: NWS Daily Summary

Daily Weather History Graph

Daily Weather History Graph

Search for Another Location

Airport or City:

Trip Planner

Search our weather history database for the weather conditions in past years. The results will help you decide how hot, cold, wet, or windy it might be!

Date:

Astronomy

Mar. 31, 2013 Rise Set
Actual Time 7:16 AM EDT 7:52 PM EDT
Civil Twilight 6:49 AM EDT 8:19 PM EDT
Nautical Twilight 6:18 AM EDT 8:50 PM EDT
Astronomical Twilight 5:46 AM EDT 9:23 PM EDT
Moon No Moon Rise 10:06 AM EDT (3/31)
Length of Visible Light 13h 29m
Length of Day
12h 36m
Waning Gibbous, 78% of the Moon is Illuminated
Mar 31
Waning Gibbous
Apr 3
Last Quarter
Apr 10
New
Apr 18
First Quarter
Apr 25
Full

Hourly Weather History & Observations

Time (EDT) Temp. Dew Point Humidity Pressure Visibility Wind Dir Wind Speed Gust Speed Precip Events Conditions
12:51 AM 48.0 °F 33.1 °F 56% 29.95 in 10.0 mi East 3.5 mph - N/A   Clear
1:51 AM 48.9 °F 33.1 °F 54% 29.92 in 10.0 mi Calm Calm - N/A   Mostly Cloudy
2:51 AM 46.9 °F 35.1 °F 63% 29.90 in 10.0 mi Calm Calm - 0.00 in   Overcast
3:51 AM 50.0 °F 39.0 °F 66% 29.88 in 10.0 mi SSW 9.2 mph - 0.01 in   Overcast
4:51 AM 50.0 °F 42.1 °F 74% 29.86 in 10.0 mi SSE 4.6 mph - 0.00 in Rain Light Rain
5:51 AM 48.9 °F 45.0 °F 86% 29.84 in 8.0 mi Calm Calm - 0.02 in Rain Light Rain
6:17 AM 48.2 °F 46.4 °F 93% 29.84 in 6.0 mi Calm Calm - 0.02 in Rain Light Rain
6:37 AM 48.2 °F 46.4 °F 93% 29.83 in 6.0 mi ENE 3.5 mph - 0.04 in Rain Light Rain
6:51 AM 48.0 °F 46.0 °F 93% 29.83 in 7.0 mi NE 3.5 mph - 0.05 in Rain Light Rain
7:11 AM 46.4 °F 46.4 °F 100% 29.82 in 4.0 mi Calm Calm - 0.00 in   Overcast
7:20 AM 46.4 °F 46.4 °F 100% 29.82 in 6.0 mi Calm Calm - 0.00 in   Overcast
7:51 AM 48.0 °F 46.0 °F 93% 29.82 in 8.0 mi Calm Calm - 0.00 in   Overcast
8:12 AM 48.2 °F 46.4 °F 93% 29.83 in 3.0 mi Calm Calm - 0.00 in   Overcast
8:51 AM 48.0 °F 46.0 °F 93% 29.82 in 1.0 mi Calm Calm - 0.01 in Rain Light Rain
9:19 AM 48.2 °F 46.4 °F 93% 29.82 in 0.8 mi Calm Calm - 0.02 in Rain Light Rain
9:46 AM 48.2 °F 46.4 °F 93% 29.81 in 1.0 mi Calm Calm - 0.04 in Rain Light Rain
9:51 AM 48.0 °F 46.9 °F 96% 29.81 in 1.0 mi Calm Calm - 0.04 in   Overcast
10:24 AM 48.2 °F 48.2 °F 100% 29.80 in 2.0 mi Calm Calm - 0.01 in   Overcast
10:31 AM 48.2 °F 48.2 °F 100% 29.80 in 0.8 mi Calm Calm - 0.01 in   Overcast
10:51 AM 50.0 °F 48.9 °F 96% 29.81 in 0.8 mi SSW 4.6 mph - 0.01 in   Overcast
11:10 AM 50.0 °F 48.2 °F 94% 29.80 in 1.0 mi Calm Calm - N/A   Overcast
11:20 AM 51.8 °F 48.2 °F 88% 29.80 in 3.0 mi SW 6.9 mph - 0.00 in   Overcast
11:51 AM 52.0 °F 50.0 °F 93% 29.80 in 10.0 mi Variable 4.6 mph - 0.00 in   Overcast
12:51 PM 52.0 °F 48.9 °F 89% 29.82 in 10.0 mi WSW 6.9 mph - N/A   Overcast
1:15 PM 51.8 °F 48.2 °F 88% 29.83 in 2.0 mi WSW 6.9 mph - 0.00 in Rain Light Rain
1:51 PM 52.0 °F 50.0 °F 93% 29.82 in 2.0 mi West 5.8 mph - 0.01 in   Overcast
1:58 PM 51.8 °F 50.0 °F 94% 29.82 in 4.0 mi West 8.1 mph - N/A   Overcast
2:31 PM 53.6 °F 50.0 °F 88% 29.82 in 10.0 mi West 8.1 mph - N/A   Overcast
2:51 PM 53.1 °F 48.0 °F 83% 29.83 in 10.0 mi WSW 10.4 mph 19.6 mph N/A   Overcast
3:51 PM 52.0 °F 46.9 °F 83% 29.83 in 10.0 mi WSW 11.5 mph 17.3 mph N/A   Overcast
4:23 PM 51.8 °F 46.4 °F 82% 29.83 in 10.0 mi WSW 10.4 mph - N/A   Overcast
4:51 PM 52.0 °F 46.9 °F 83% 29.82 in 10.0 mi SW 9.2 mph 16.1 mph N/A   Overcast
5:51 PM 53.1 °F 46.0 °F 77% 29.81 in 10.0 mi SW 8.1 mph - N/A   Overcast
6:51 PM 54.0 °F 46.0 °F 75% 29.82 in 10.0 mi SW 8.1 mph - N/A   Overcast
7:27 PM 53.6 °F 46.4 °F 77% 29.82 in 10.0 mi SSW 5.8 mph - N/A   Mostly Cloudy
7:51 PM 52.0 °F 45.0 °F 77% 29.83 in 10.0 mi SSW 3.5 mph - N/A   Scattered Clouds
8:51 PM 50.0 °F 45.0 °F 83% 29.83 in 10.0 mi SSW 3.5 mph - N/A   Clear
9:51 PM 48.9 °F 44.1 °F 83% 29.84 in 10.0 mi SSW 4.6 mph - N/A   Clear
10:51 PM 48.0 °F 44.1 °F 86% 29.84 in 10.0 mi SSW 4.6 mph - N/A   Clear
11:51 PM 48.0 °F 44.1 °F 86% 29.83 in 10.0 mi SSW 6.9 mph - N/A   Clear